When you browse on this site, cookies collect data to enhance your experience and personalize the content and advertising you see.
Visit our Privacy Policy to learn more. By continuing to use the site, you agree to this use of cookies and data.
  • In Hungary
  • List of Countries
  • For 7 days
  • Water Temperature
  • Satellite Maps
  • Weather Map
  • News
  • Weather Widgets
  • user-avatar
    Login

    Hourly Weather Bolshoy Pinezh

    Today, 18 November, Sunday

    Time Temperature Precipitation Wind Pressure Humidity
    00:00 -2°C° 0.3 mm 4 mps 751 mmHg 90%
    01:00 -2°C° 0.3 mm 4 mps 751 mmHg 91%
    02:00 -2°C° 0.3 mm 4 mps 751 mmHg 91%
    03:00 -1°C° 0 mm 3 mps 750 mmHg 92%
    04:00 -1°C° 0.2 mm 3 mps 750 mmHg 92%
    05:00 -1°C° 0.2 mm 3 mps 750 mmHg 92%
    06:00 -1°C° 0.2 mm 3 mps 750 mmHg 92%
    07:00 -1°C° 0 mm 3 mps 750 mmHg 92%
    08:00 -1°C° 0 mm 3 mps 750 mmHg 92%
    09:00 -1°C° 0 mm 3 mps 750 mmHg 92%
    10:00 +1°C° 0 mm 2 mps 750 mmHg 91%
    11:00 +1°C° 0 mm 2 mps 751 mmHg 91%
    12:00 +1°C° 0 mm 2 mps 751 mmHg 90%
    13:00 +1°C° 0 mm 2 mps 751 mmHg 91%
    14:00 +1°C° 0 mm 2 mps 752 mmHg 92%
    15:00 +1°C° 0 mm 2 mps 752 mmHg 94%
    16:00 +1°C° 0 mm 2 mps 752 mmHg 95%
    17:00 +1°C° 0 mm 2 mps 752 mmHg 95%
    18:00 -1°C° 0 mm 2 mps 753 mmHg 96%
    19:00 -1°C° 0 mm 2 mps 753 mmHg 96%
    20:00 -1°C° 0 mm 2 mps 753 mmHg 96%
    21:00 -1°C° 0 mm 2 mps 753 mmHg 96%
    22:00 -1°C° 0.1 mm 2 mps 753 mmHg 97%
    23:00 -1°C° 0.1 mm 2 mps 754 mmHg 97%

    Tomorrow, 19 November, Monday

    Time Temperature Precipitation Wind Pressure Humidity
    00:00 -1°C° 0.1 mm 2 mps 754 mmHg 97%
    01:00 -1°C° 0.2 mm 2 mps 754 mmHg 97%
    02:00 -1°C° 0.2 mm 2 mps 754 mmHg 97%
    03:00 -1°C° 0.2 mm 2 mps 754 mmHg 97%
    04:00 -1°C° 0.3 mm 2 mps 755 mmHg 97%
    05:00 -1°C° 0.3 mm 2 mps 755 mmHg 96%
    06:00 -1°C° 0.3 mm 2 mps 755 mmHg 96%
    07:00 +1°C° 0.1 mm 2 mps 756 mmHg 96%
    08:00 +1°C° 0.1 mm 2 mps 756 mmHg 95%
    09:00 0°C° 0.1 mm 3 mps 756 mmHg 94%
    10:00 0°C° 0 mm 3 mps 757 mmHg 92%
    11:00 0°C° 0 mm 3 mps 757 mmHg 90%
    12:00 0°C° 0 mm 3 mps 757 mmHg 88%
    13:00 0°C° 0 mm 3 mps 758 mmHg 87%
    14:00 0°C° 0 mm 3 mps 758 mmHg 87%
    15:00 -1°C° 0 mm 3 mps 758 mmHg 86%
    16:00 -1°C° 0 mm 3 mps 758 mmHg 87%
    17:00 -1°C° 0 mm 3 mps 759 mmHg 88%
    18:00 -2°C° 0 mm 3 mps 759 mmHg 89%
    19:00 -2°C° 0 mm 3 mps 759 mmHg 89%
    20:00 -2°C° 0 mm 3 mps 759 mmHg 89%
    21:00 -2°C° 0 mm 3 mps 759 mmHg 89%
    22:00 -2°C° 0 mm 3 mps 759 mmHg 88%
    23:00 -4°C° 0 mm 3 mps 759 mmHg 87%

    Day after tomorrow, 20 November, Tuesday

    Time Temperature Precipitation Wind Pressure Humidity
    00:00 -4°C° 0 mm 3 mps 759 mmHg 86%
    01:00 -3°C° 0 mm 2 mps 759 mmHg 88%
    02:00 -4°C° 0 mm 2 mps 759 mmHg 90%
    03:00 -4°C° 0 mm 2 mps 759 mmHg 92%
    04:00 -4°C° 0 mm 2 mps 759 mmHg 92%
    05:00 -5°C° 0 mm 2 mps 759 mmHg 93%
    06:00 -5°C° 0 mm 2 mps 758 mmHg 94%
    07:00 -5°C° 0 mm 2 mps 758 mmHg 92%
    08:00 -5°C° 0 mm 2 mps 758 mmHg 90%
    09:00 -4°C° 0 mm 2 mps 758 mmHg 88%
    10:00 -4°C° 0 mm 2 mps 757 mmHg 85%
    11:00 -4°C° 0 mm 2 mps 757 mmHg 82%
    12:00 -3°C° 0 mm 2 mps 756 mmHg 78%
    13:00 -3°C° 0 mm 2 mps 756 mmHg 79%
    14:00 -3°C° 0 mm 2 mps 756 mmHg 79%
    15:00 -3°C° 0 mm 2 mps 755 mmHg 79%
    16:00 -5°C° 0 mm 3 mps 755 mmHg 80%
    17:00 -5°C° 0 mm 3 mps 754 mmHg 81%
    18:00 -5°C° 0 mm 3 mps 753 mmHg 82%
    19:00 -5°C° 0 mm 3 mps 753 mmHg 81%
    20:00 -5°C° 0 mm 3 mps 752 mmHg 80%
    21:00 -5°C° 0 mm 3 mps 752 mmHg 79%
    22:00 -5°C° 0 mm 4 mps 751 mmHg 78%
    23:00 -5°C° 0 mm 4 mps 751 mmHg 77%

    21 November, Wednesday

    Time Temperature Precipitation Wind Pressure Humidity
    00:00 -5°C° 0 mm 4 mps 751 mmHg 77%
    01:00 -5°C° 0 mm 4 mps 750 mmHg 78%
    02:00 -5°C° 0 mm 4 mps 750 mmHg 79%
    03:00 -5°C° 0 mm 4 mps 750 mmHg 81%
    04:00 -4°C° 0.1 mm 4 mps 750 mmHg 82%
    05:00 -4°C° 0.1 mm 4 mps 749 mmHg 84%
    06:00 -4°C° 0.1 mm 4 mps 749 mmHg 86%
    07:00 -4°C° 0.1 mm 4 mps 749 mmHg 84%
    08:00 -4°C° 0.1 mm 4 mps 749 mmHg 82%
    09:00 -3°C° 0.1 mm 4 mps 749 mmHg 81%
    10:00 -3°C° 0 mm 4 mps 750 mmHg 77%
    11:00 -4°C° 0 mm 5 mps 750 mmHg 73%
    12:00 -2°C° 0 mm 5 mps 750 mmHg 69%
    13:00 -4°C° 0 mm 5 mps 750 mmHg 69%
    14:00 -4°C° 0 mm 4 mps 750 mmHg 70%
    15:00 -5°C° 0 mm 4 mps 750 mmHg 70%
    16:00 -5°C° 0 mm 4 mps 750 mmHg 72%
    17:00 -5°C° 0 mm 3 mps 750 mmHg 74%
    18:00 -6°C° 0 mm 3 mps 750 mmHg 75%
    19:00 -6°C° 0 mm 3 mps 750 mmHg 77%
    20:00 -6°C° 0 mm 3 mps 750 mmHg 78%
    21:00 -6°C° 0 mm 3 mps 750 mmHg 80%
    22:00 -6°C° 0 mm 3 mps 749 mmHg 81%
    23:00 -6°C° 0 mm 3 mps 749 mmHg 82%

    22 November, Thursday

    Time Temperature Precipitation Wind Pressure Humidity
    00:00 -6°C° 0 mm 3 mps 748 mmHg 83%
    01:00 -7°C° 0 mm 4 mps 748 mmHg 84%
    02:00 -7°C° 0 mm 4 mps 747 mmHg 86%
    03:00 -8°C° 0 mm 4 mps 747 mmHg 87%
    04:00 -7°C° 0 mm 4 mps 746 mmHg 86%
    05:00 -7°C° 0 mm 5 mps 745 mmHg 85%
    06:00 -7°C° 0 mm 5 mps 744 mmHg 85%
    07:00 -6°C° 0.1 mm 5 mps 744 mmHg 84%
    08:00 -6°C° 0.1 mm 6 mps 743 mmHg 83%
    09:00 -6°C° 0.1 mm 6 mps 743 mmHg 83%
    10:00 -5°C° 0.2 mm 6 mps 742 mmHg 82%
    11:00 -5°C° 0.2 mm 5 mps 741 mmHg 82%
    12:00 -5°C° 0.2 mm 5 mps 741 mmHg 81%
    13:00 -4°C° 0.5 mm 5 mps 740 mmHg 84%
    14:00 -4°C° 0.5 mm 5 mps 739 mmHg 87%
    15:00 -4°C° 0.5 mm 5 mps 738 mmHg 89%
    16:00 -5°C° 0.3 mm 6 mps 739 mmHg 81%
    17:00 -7°C° 0.3 mm 7 mps 740 mmHg 73%
    18:00 -8°C° 0.3 mm 8 mps 740 mmHg 65%
    19:00 -9°C° 0 mm 7 mps 742 mmHg 67%
    20:00 -10°C° 0 mm 6 mps 743 mmHg 68%
    21:00 -10°C° 0 mm 5 mps 744 mmHg 70%
    22:00 -10°C° 0 mm 5 mps 745 mmHg 74%
    23:00 -10°C° 0 mm 4 mps 746 mmHg 77%

    23 November, Friday

    Time Temperature Precipitation Wind Pressure Humidity
    00:00 -10°C° 0 mm 4 mps 746 mmHg 81%
    01:00 -10°C° 0 mm 4 mps 747 mmHg 81%
    02:00 -10°C° 0 mm 4 mps 748 mmHg 80%
    03:00 -10°C° 0 mm 4 mps 748 mmHg 80%
    04:00 -10°C° 0 mm 4 mps 749 mmHg 80%
    05:00 -10°C° 0 mm 4 mps 749 mmHg 80%
    06:00 -11°C° 0 mm 4 mps 750 mmHg 80%
    07:00 -11°C° 0 mm 4 mps 750 mmHg 81%
    08:00 -11°C° 0 mm 4 mps 751 mmHg 82%
    09:00 -10°C° 0 mm 3 mps 751 mmHg 83%
    10:00 -10°C° 0 mm 4 mps 751 mmHg 81%
    11:00 -9°C° 0 mm 4 mps 751 mmHg 78%
    12:00 -8°C° 0 mm 4 mps 751 mmHg 75%
    13:00 -8°C° 0 mm 4 mps 751 mmHg 76%
    14:00 -8°C° 0 mm 5 mps 750 mmHg 76%
    15:00 -8°C° 0 mm 5 mps 750 mmHg 77%
    16:00 -8°C° 0 mm 5 mps 749 mmHg 79%
    17:00 -8°C° 0 mm 5 mps 749 mmHg 80%
    18:00 -8°C° 0 mm 5 mps 748 mmHg 82%
    19:00 -7°C° 0 mm 5 mps 748 mmHg 83%
    20:00 -6°C° 0 mm 5 mps 747 mmHg 83%
    21:00 -6°C° 0 mm 5 mps 746 mmHg 84%
    22:00 -5°C° 0.1 mm 6 mps 746 mmHg 84%
    23:00 -5°C° 0.1 mm 6 mps 745 mmHg 83%
    Show more